Chamberlain, SD

12:07 PM CDT on July 24, 2017 (GMT -0500)
Chamberlain

Weather History for K9V9 - July, 2013

Change the Weather History Date:

Saturday, July 20, 2013

  Actual Average Record
Temperature  
Mean Temperature 70 °F -  
Max Temperature 82 °F 86 °F 109 °F (2002)
Min Temperature 60 °F 61 °F 54 °F (2000)
Cooling Degree Days 6    
Growing Degree Days 20 (Base 50)    
Moisture  
Dew Point 62 °F    
Average Humidity 72    
Maximum Humidity 94    
Minimum Humidity 56    
Precipitation  
Precipitation 1.09 in - - ()
Sea Level Pressure  
Sea Level Pressure 29.92 in    
Wind  
Wind Speed 10 mph (SE)    
Max Wind Speed 43 mph    
Max Gust Speed 61 mph    
Averages and records for this station are not official NWS values.
T = Trace of Precipitation, MM = Missing Value Source: NWS Daily Summary

Daily Weather History Graph

Daily Weather History Graph

Search for Another Location

Airport or City:

Trip Planner

Search our weather history database for the weather conditions in past years. The results will help you decide how hot, cold, wet, or windy it might be!

Date:

Astronomy

Jul. 20, 2013 Rise Set
Actual Time 6:13 AM CDT 9:12 PM CDT
Civil Twilight 5:39 AM CDT 9:46 PM CDT
Nautical Twilight 4:56 AM CDT 10:30 PM CDT
Astronomical Twilight 4:04 AM CDT 11:21 PM CDT
Moon 7:17 PM CDT (7/20) 3:55 AM CDT (7/20)
Length of Visible Light 16h 07m
Length of Day
14h 58m
Waxing Gibbous, 94% of the Moon is Illuminated
Jul 20
Waxing Gibbous
Jul 22
Full
Jul 29
Last Quarter
Aug 6
New
Aug 14
First Quarter

Hourly Weather History & Observations

Time (CDT) Temp. Heat Index Dew Point Humidity Pressure Visibility Wind Dir Wind Speed Gust Speed Precip Events Conditions
12:52 AM 68.0 °F - 57.0 °F 68% 29.88 in - SE 9.2 mph - N/A   Unknown
1:52 AM 68.0 °F - 57.9 °F 70% 29.89 in - East 8.1 mph - N/A   Unknown
2:52 AM 70.0 °F - 55.9 °F 61% 29.89 in - SE 6.9 mph - N/A   Unknown
3:47 AM 66.2 °F - 60.8 °F 83% 30.06 in - North 12.7 mph - 0.03 in   Unknown
3:52 AM 66.0 °F - 60.1 °F 81% 30.02 in - NW 10.4 mph - 0.04 in   Unknown
4:52 AM 64.9 °F - 62.1 °F 90% 29.97 in - ESE 8.1 mph - 0.20 in   Unknown
5:52 AM 64.9 °F - 62.1 °F 90% 29.96 in - South 16.1 mph 24.2 mph 0.01 in   Unknown
6:52 AM 64.0 °F - 60.1 °F 87% 29.99 in - South 12.7 mph - 0.09 in   Unknown
7:52 AM 64.0 °F - 60.1 °F 87% 29.89 in - North - - 0.01 in   Unknown
8:52 AM 68.0 °F - 60.1 °F 76% 29.87 in - South 15.0 mph - N/A   Unknown
9:52 AM 73.9 °F - 63.0 °F 68% 29.90 in - SSW 10.4 mph - N/A   Unknown
10:52 AM 77.0 °F - 62.1 °F 60% 29.93 in - SW 6.9 mph - N/A   Unknown
11:52 AM 75.9 °F - 61.0 °F 60% 29.94 in - WNW 5.8 mph - N/A   Unknown
12:52 PM 78.1 °F - 61.0 °F 56% 29.94 in - West 3.5 mph - N/A   Unknown
1:52 PM 81.0 °F 82.7 °F 64.9 °F 58% 29.91 in - East 8.1 mph - N/A   Unknown
2:52 PM 80.1 °F 81.9 °F 64.9 °F 60% 29.91 in - East 9.2 mph - N/A   Unknown
3:52 PM 81.0 °F 82.7 °F 64.9 °F 58% 29.91 in - SE 13.8 mph 18.4 mph N/A   Unknown
4:52 PM 81.0 °F 82.7 °F 64.9 °F 58% 29.90 in - SE 11.5 mph - N/A   Unknown
5:52 PM 81.0 °F 82.5 °F 64.0 °F 56% 29.88 in - SSE 8.1 mph - N/A   Unknown
6:52 PM 80.1 °F 81.7 °F 64.0 °F 58% 29.86 in - ESE 10.4 mph - N/A   Unknown
7:52 PM 78.1 °F - 64.0 °F 62% 29.86 in - East 10.4 mph - N/A   Unknown
8:52 PM 72.0 °F - 63.0 °F 73% 29.86 in - East 12.7 mph - N/A   Unknown
9:52 PM 70.0 °F - 63.0 °F 78% 29.85 in - East 10.4 mph - 0.02 in   Unknown
10:34 PM 60.8 °F - 59.0 °F 94% 30.01 in - NNW 42.6 mph 61.0 mph 0.09 in   Unknown
10:52 PM 62.1 °F - 59.0 °F 90% 29.90 in - ENE 8.1 mph 35.7 mph 0.72 in   Unknown
11:52 PM 63.0 °F - 60.1 °F 90% 29.86 in - SSE 10.4 mph - N/A   Unknown